2024-174E (61242 NORAD) Tracking and Keplerian Element Data

This shows tracking and keplerian element data for the satellite.

Feedback or suggestion? Click here.




ElementValue
Catalog61242
Name2024-174E
Epoch Orbit267
Epoch Day286.90846087
Epoch Year2024
RAAN291.8931
Inclination97.4577
Eccentricity0.0015233
Argument of Perigee215.4781
Mean Anonmoly144.544
Mean Motion15.16579531
Decay Rate0.00014298
L11 61242U 24174E 24286.90846087 .00014298 00000+0 73274-3 0 9996
L22 61242 97.4577 291.8931 0015233 215.4781 144.5440 15.16579531 2671



Live tracking and technical data element details for 2024-174E (NORAD 61242). 2024-174E can be tracked NOW for your location showing map with azimuth and elevation plus other details from your city location.







IsCatalogInMostPopularTable: catalog: 61242, numindb: 26
Update: records affected: 1



GetName: 61242 2024-174E

Hit Count: updated at: Fri, 06 Dec 2024 11:12:30 GMT